Location: Rayville
(42.4642°N, 73.5384°W)
Time: 20:18:52
(UTC+00:00)

DUCHIFAT 1 - Visible Passes

Search period start: 05 December 2024 00:00
Search period end: 15 December 2024 00:00
Orbit: 509 x 521 km, 98.1° (Epoch: 05 December)

Date Brightness Start Highest point End Pass type
(mag) Time Alt. Az. Time Alt. Az. Time Alt. Az.
05 Dec ? 09:32:25 10° ENE 09:34:21 14° E 09:36:17 10° ESE visible
05 Dec ? 11:04:58 10° N 11:08:33 41° WNW 11:12:05 10° SW visible
06 Dec ? 10:49:51 10° N 10:53:37 65° WNW 10:57:19 10° SSW visible
07 Dec ? 10:34:48 10° NNE 10:38:35 80° ESE 10:42:19 10° S visible
07 Dec ? 22:51:14 10° WSW 22:53:04 13° W 22:54:55 10° WNW visible
08 Dec ? 10:19:48 10° NNE 10:23:28 49° E 10:27:06 10° S visible
08 Dec ? 22:35:01 10° SW 22:37:49 20° W 22:40:39 10° NW visible
09 Dec ? 10:04:52 10° NNE 10:08:17 32° E 10:11:38 10° SSE visible
09 Dec ? 11:39:23 10° NNW 11:42:01 18° WNW 11:44:37 10° WSW visible
09 Dec ? 22:19:14 10° SSW 22:22:33 29° W 22:25:55 10° NW visible
10 Dec ? 09:50:05 10° NE 09:53:00 21° E 09:55:52 10° SE visible
10 Dec ? 11:23:45 10° N 11:26:56 26° WNW 11:30:05 10° SW visible
10 Dec ? 22:03:39 10° S 22:07:16 45° W 22:10:56 10° NNW visible
11 Dec ? 09:35:36 10° ENE 09:37:37 14° E 09:39:37 10° SE visible
11 Dec ? 11:08:13 10° N 11:11:46 40° WNW 11:15:16 10° SW visible
11 Dec ? 21:48:12 10° S 21:51:58 73° WSW 21:55:46 10° NNW visible
12 Dec ? 10:52:46 10° N 10:56:30 63° WNW 11:00:12 10° SSW visible
13 Dec ? 10:37:24 10° NNE 10:41:10 81° ESE 10:44:54 10° S visible
13 Dec ? 22:53:43 10° WSW 22:55:29 13° W 22:57:16 10° WNW visible
14 Dec ? 10:22:04 10° NNE 10:25:44 50° E 10:29:21 10° S visible
14 Dec ? 22:37:08 10° SW 22:39:55 19° W 22:42:43 10° NW visible
